FW8184 Weather Reports


time (UTC)temp
C
wind
direction
speed
KPH
gust
KPH
rain 1hr
cm
rain 24hr
cm
rain mn
cm
humidity
%
barometer
mb
20260906141020 23 101 1.6 6.4 0.00 0.00 0.00 82 1017.9
20260906140518 22 82 1.6 6.4 0.00 0.00 0.00 83 1018.1
20260906140039 22 334 1.6 6.4 0.00 0.00 0.00 83 1018.0
20260906134539 22 40 1.6 9.7 0.00 0.00 0.00 83 1018.1
20260906133105 22 58 1.6 6.4 0.00 0.00 0.00 84 1018.1
20260906132518 22 0 0.0 6.4 0.00 0.00 0.00 84 1018.0
20260906132020 22 0 0.0 3.2 0.00 0.00 0.00 84 1018.0
20260906131535 22 0 0.0 3.2 0.00 0.00 0.00 84 1018.0
20260906131019 22 0 0.0 3.2 0.00 0.00 0.00 84 1017.9
20260906130518 22 306 0.0 4.8 0.00 0.00 0.00 84 1018.0
20260906130039 22 72 1.6 4.8 0.00 0.00 0.00 84 1017.8
20260906125519 22 24 1.6 4.8 0.00 0.00 0.00 84 1017.7
20260906125018 21 0 1.6 3.2 0.00 0.00 0.00 85 1017.6
20260906124537 21 144 0.0 6.4 0.00 0.00 0.00 85 1017.5
20260906123039 21 329 1.6 6.4 0.00 0.00 0.00 85 1017.5
20260906122018 21 338 0.0 1.6 0.00 0.00 0.00 85 1017.4
20260906121542 21 0 0.0 1.6 0.00 0.00 0.00 85 1017.5
20260906120522 21 0 0.0 1.6 0.00 0.00 0.00 85 1017.5
20260906120040 21 0 0.0 1.6 0.00 0.00 0.00 85 1017.2
20260906114546 21 0 0.0 1.6 0.00 0.00 0.00 84 1016.7
20260906113039 21 0 0.0 3.2 0.00 0.00 0.00 85 1016.9
20260906112018 21 0 0.0 1.6 0.00 0.00 0.00 85 1016.8
20260906111548 21 21 0.0 1.6 0.00 0.00 0.00 85 1016.6
20260906111017 21 22 0.0 1.6 0.00 0.00 0.00 84 1016.6
20260906110520 21 0 0.0 1.6 0.00 0.00 0.00 84 1016.6
20260906110039 21 0 0.0 1.6 0.00 0.00 0.00 84 1016.7
20260906104541 21 0 0.0 1.6 0.00 0.00 0.00 84 1016.6
20260906103039 21 0 0.0 1.6 0.00 0.00 0.00 84 1016.3
20260906102521 21 0 0.0 1.6 0.00 0.00 0.00 84 1016.3
20260906101538 21 44 0.0 1.6 0.00 0.00 0.00 84 1016.5
20260906101019 21 45 0.0 1.6 0.00 0.00 0.00 84 1016.3
20260906100517 21 0 0.0 1.6 0.00 0.00 0.00 84 1016.3
20260906100040 21 0 0.0 3.2 0.00 0.00 0.00 84 1016.0
20260906094541 21 75 1.6 8.0 0.00 0.00 0.00 84 1016.0
20260906093040 21 154 0.0 6.4 0.00 0.00 0.00 84 1016.0
20260906092517 21 41 1.6 6.4 0.00 0.00 0.00 84 1016.0
20260906092019 21 23 1.6 6.4 0.00 0.00 0.00 84 1016.0
20260906091544 22 36 0.0 6.4 0.00 0.00 0.00 84 1015.9
20260906090040 22 70 1.6 3.2 0.00 0.00 0.00 83 1016.0
20260906085021 22 77 0.0 3.2 0.00 0.00 0.00 83 1015.7
20260906084539 22 91 1.6 6.4 0.00 0.00 0.00 83 1015.8
20260906084022 22 108 1.6 6.4 0.00 0.00 0.00 83 1015.9
20260906083517 22 88 0.0 8.0 0.00 0.00 0.00 83 1016.0
20260906083042 22 0 1.6 8.0 0.00 0.00 0.00 83 1015.9
20260906081540 22 42 1.6 6.4 0.00 0.00 0.00 83 1016.0
20260906080040 22 0 0.0 8.0 0.00 0.00 0.00 82 1015.8
20260906075520 22 140 0.0 8.0 0.00 0.00 0.00 82 1015.8
20260906075020 22 244 1.6 8.0 0.00 0.00 0.00 82 1015.7
20260906074539 22 44 0.0 8.0 0.00 0.00 0.00 82 1015.9
20260906074020 22 34 0.0 6.4 0.00 0.00 0.00 82 1015.8
20260906073520 22 94 1.6 8.0 0.00 0.00 0.00 82 1015.8
20260906073037 22 63 1.6 8.0 0.00 0.00 0.00 82 1015.9
20260906071540 23 351 1.6 4.8 0.00 0.00 0.00 82 1016.0
20260906070040 23 81 0.0 8.0 0.00 0.00 0.00 82 1016.1
20260906065522 23 69 1.6 8.0 0.00 0.00 0.00 82 1016.2
20260906065019 23 0 0.0 3.2 0.00 0.00 0.00 83 1016.2
20260906064536 23 40 0.0 3.2 0.00 0.00 0.00 83 1016.3
20260906064021 23 0 0.0 1.6 0.00 0.00 0.00 83 1016.3
20260906061539 23 34 0.0 1.6 0.00 0.00 0.00 82 1016.3
20260906061019 23 36 0.0 1.6 0.00 0.00 0.00 82 1016.1
20260906060520 23 25 0.0 1.6 0.00 0.00 0.00 81 1016.0
20260906060035 23 0 0.0 1.6 0.00 0.00 0.00 81 1015.9
20260906055517 23 0 0.0 0.0 0.00 0.00 0.00 81 1016.0
20260906055018 23 0 0.0 1.6 0.00 0.00 0.00 81 1016.0
20260906054552 23 0 0.0 3.2 0.00 0.00 0.00 81 1015.9
20260906053039 24 86 1.6 4.8 0.00 0.00 0.00 81 1015.6
20260906051559 24 281 0.0 3.2 0.00 0.00 0.00 81 1015.6
20260906051020 24 0 0.0 6.4 0.00 0.00 0.00 81 1015.5
20260906050517 25 0 0.0 6.4 0.00 0.00 0.00 81 1015.2
20260906050044 25 160 0.0 3.2 0.00 0.00 0.00 81 1015.1
20260906045520 25 169 0.0 4.8 0.00 0.00 0.00 81 1015.1
20260906045017 25 167 0.0 6.4 0.00 0.00 0.00 80 1015.1
20260906044549 25 345 0.0 6.4 0.00 0.00 0.00 80 1015.0
20260906043040 25 101 0.0 3.2 0.00 0.00 0.00 81 1014.9
20260906042518 25 49 0.0 3.2 0.00 0.00 0.00 81 1014.9
20260906042017 25 262 0.0 3.2 0.00 0.00 0.00 80 1014.8
20260906041539 25 18 0.0 3.2 0.00 0.00 0.00 80 1014.8
20260906041023 25 0 0.0 3.2 0.00 0.00 0.00 79 1014.7
20260906040516 26 0 0.0 9.7 0.00 0.00 0.00 79 1014.8
20260906040114 26 23 1.6 9.7 0.00 0.00 0.00 79 1014.6
20260906034536 26 48 0.0 6.4 0.00 0.00 0.00 78 1014.6
20260906034018 26 122 1.6 4.8 0.00 0.00 0.00 77 1014.6
20260906033519 26 10 1.6 4.8 0.00 0.00 0.00 76 1014.5
20260906033046 26 55 1.6 9.7 0.00 0.00 0.00 76 1014.5
20260906032520 27 37 1.6 9.7 0.00 0.00 0.00 75 1014.4
20260906032020 27 60 1.6 11.3 0.00 0.00 0.00 75 1014.4
20260906031537 27 359 1.6 11.3 0.00 0.00 0.00 75 1014.3
20260906031017 27 74 3.2 11.3 0.00 0.00 0.00 74 1014.3
20260906030034 27 72 1.6 8.0 0.00 0.00 0.00 74 1014.2
20260906025637 27 103 1.6 8.0 0.00 0.00 0.00 73 1014.1
20260906025024 27 125 1.6 8.0 0.00 0.00 0.00 73 1014.1
20260906024542 27 16 1.6 12.9 0.00 0.00 0.00 73 1014.1
20260906023044 28 46 3.2 17.7 0.00 0.00 0.00 74 1014.1
20260906021540 27 111 3.2 6.4 0.00 0.00 0.00 81 1014.0
20260906021017 27 80 0.0 1.6 0.00 0.00 0.00 81 1013.9
20260906020041 27 0 0.0 0.0 0.00 0.00 0.00 80 1013.5
20260906014539 27 0 0.0 0.0 0.00 0.00 0.00 79 1013.2
20260906013520 27 0 0.0 0.0 0.00 0.00 0.00 79 1013.0
20260906013040 28 0 0.0 0.0 0.00 0.00 0.00 78 1012.9
20260906011541 28 0 0.0 1.6 0.00 0.00 0.00 77 1012.9
20260906010518 28 15 0.0 1.6 0.00 0.00 0.00 76 1012.9
20260906010039 28 0 0.0 1.6 0.00 0.00 0.00 74 1012.8
20260906005518 29 0 0.0 1.6 0.00 0.00 0.00 74 1012.8
20260906005017 29 0 0.0 0.0 0.00 0.00 0.00 74 1012.7
20260906004536 29 0 0.0 1.6 0.00 0.00 0.00 73 1012.5
20260906003041 30 0 0.0 3.2 0.00 0.00 0.00 72 1012.6
20260906002019 30 0 0.0 1.6 0.00 0.00 0.00 71 1012.5
20260906001545 30 108 0.0 1.6 0.00 0.00 0.00 70 1012.4
20260906000036 31 0 0.0 1.6 0.00 0.00 0.00 68 1012.5
20260905234539 32 0 0.0 6.4 0.00 0.00 0.00 66 1012.4
20260905233036 32 344 0.0 4.8 0.00 0.00 0.00 64 1012.7
20260905232522 32 15 0.0 4.8 0.00 0.00 0.00 62 1012.6
20260905231552 32 68 1.6 6.4 0.00 0.00 0.00 61 1012.5
20260905231018 33 47 1.6 6.4 0.00 0.00 0.00 61 1012.3
20260905230517 33 80 0.0 3.2 0.00 0.00 0.00 61 1012.5
20260905230039 33 58 1.6 6.4 0.00 0.00 0.00 61 1012.5
20260905224607 33 87 3.2 9.7 0.00 0.00 0.00 59 1012.6
20260905224020 33 300 1.6 9.7 0.00 0.00 0.00 58 1012.6
20260905223518 33 243 1.6 6.4 0.00 0.00 0.00 59 1012.4
20260905223042 33 330 1.6 6.4 0.00 0.00 0.00 58 1012.4
20260905222517 34 203 1.6 4.8 0.00 0.00 0.00 58 1012.4
20260905222016 34 49 0.0 6.4 0.00 0.00 0.00 57 1012.3
20260905221019 35 65 3.2 8.0 0.00 0.00 0.00 55 1012.4
20260905220519 35 18 1.6 8.0 0.00 0.00 0.00 58 1012.3
20260905220038 34 86 1.6 8.0 0.00 0.00 0.00 57 1012.3
20260905215517 34 105 0.0 8.0 0.00 0.00 0.00 57 1012.5
20260905214547 34 27 3.2 9.7 0.00 0.00 0.00 58 1012.4
20260905213518 35 18 3.2 11.3 0.00 0.00 0.00 56 1012.4
20260905213036 34 51 4.8 11.3 0.00 0.00 0.00 57 1012.4
20260905212526 34 239 4.8 8.0 0.00 0.00 0.00 57 1012.4
20260905212018 35 25 3.2 8.0 0.00 0.00 0.00 57 1012.5
20260905211546 35 23 1.6 6.4 0.00 0.00 0.00 56 1012.3
20260905211018 35 93 1.6 6.4 0.00 0.00 0.00 55 1012.4
20260905210520 35 74 3.2 8.0 0.00 0.00 0.00 52 1012.5
20260905210048 36 75 1.6 8.0 0.00 0.00 0.00 51 1012.3
20260905205519 35 281 1.6 4.8 0.00 0.00 0.00 50 1012.6
20260905205019 35 46 1.6 4.8 0.00 0.00 0.00 52 1012.4
20260905204540 35 70 1.6 4.8 0.00 0.00 0.00 53 1012.5
20260905203039 35 56 1.6 14.5 0.00 0.00 0.00 50 1012.9
20260905202526 35 83 3.2 14.5 0.00 0.00 0.00 49 1012.9
20260905202020 35 32 3.2 6.4 0.00 0.00 0.00 49 1012.9
20260905201536 36 24 3.2 11.3 0.00 0.00 0.00 48 1013.0
20260905200041 36 81 3.2 9.7 0.00 0.00 0.00 48 1013.1
20260905194547 35 89 3.2 9.7 0.00 0.00 0.00 49 1013.0
20260905193040 35 65 3.2 9.7 0.00 0.00 0.00 49 1013.1
20260905191538 36 94 4.8 8.0 0.00 0.00 0.00 46 1013.3
20260905190043 36 53 1.6 11.3 0.00 0.00 0.00 48 1013.1
20260905184553 36 63 3.2 9.7 0.00 0.00 0.00 47 1013.3
20260905183040 36 75 3.2 8.0 0.00 0.00 0.00 48 1013.6
20260905181542 36 285 3.2 9.7 0.00 0.00 0.00 48 1013.7
20260905180047 35 256 3.2 6.4 0.00 0.00 0.00 49 1013.9
20260905175519 35 283 3.2 6.4 0.00 0.00 0.00 49 1013.9
20260905175020 35 97 1.6 4.8 0.00 0.00 0.00 51 1013.9
20260905174540 35 333 1.6 8.0 0.00 0.00 0.00 48 1014.0
20260905173101 35 39 1.6 6.4 0.00 0.00 0.00 52 1014.1
20260905171540 35 97 1.6 4.8 0.00 0.00 0.00 52 1014.2
20260905170035 35 359 1.6 4.8 0.00 0.00 0.00 54 1014.3
20260905165018 34 334 1.6 3.2 0.00 0.00 0.00 57 1014.3
20260905164541 34 80 1.6 4.8 0.00 0.00 0.00 57 1014.3
20260905163039 33 269 1.6 4.8 0.00 0.00 0.00 57 1014.4
20260905161601 33 46 1.6 4.8 0.00 0.00 0.00 60 1014.4
20260905161019 33 46 0.0 1.6 0.00 0.00 0.00 59 1014.4
20260905160517 33 0 0.0 1.6 0.00 0.00 0.00 58 1014.5
20260905160044 33 0 0.0 3.2 0.00 0.00 0.00 61 1014.5
20260905154538 32 314 1.6 3.2 0.00 0.00 0.00 59 1014.4
20260905153039 32 309 0.0 1.6 0.00 0.00 0.00 59 1014.4
20260905152522 32 108 1.6 3.2 0.00 0.00 0.00 63 1014.4
20260905152018 32 74 0.0 3.2 0.00 0.00 0.00 64 1014.4
20260905151542 32 91 0.0 3.2 0.00 0.00 0.00 63 1014.3
20260905150040 32 126 1.6 3.2 0.00 0.00 0.00 58 1014.3
20260905144542 32 289 0.0 1.6 0.00 0.00 0.00 61 1014.1
20260905143037 30 0 0.0 1.6 0.00 0.00 0.00 67 1014.0
20260905141541 29 0 0.0 1.6 0.00 0.00 0.00 72 1014.1